Regional Weather Roundup
Issued by NWS

Home | Current Version | Previous Version | Graphics & Text | Print | Product List | Glossary On
Versions: 1 2 3 4 5 6 7 8 9 10 11 12 13 14 15 16 17 18 19 20 21 22 23 24 25 26 27 28 29 30 31 32 33 34 35 36 37 38 39 40 41 42 43 44 45 46 47 48 49 50
000
ASUS43 KDMX 012107
RWRIA

WEATHER ROUNDUP FOR IOWA
NATIONAL WEATHER SERVICE DES MOINES IA
400 PM CDT FRI AUG 01 2014

NOTE: "FAIR" INDICATES FEW OR NO CLOUDS BELOW 12,000 FEET WITH NO
SIGNIFICANT WEATHER AND/OR OBSTRUCTIONS TO VISIBILITY.

* - THESE STATIONS ARE NOT NWS STATIONS...THUS NOT UNDER NWS
QUALITY CONTROL.  THEY ALSO DO NOT REPORT WEATHER SUCH
AS PRECIPITATION OR FOG.

IAZ001>003-012>014-020>022-031>034-043>046-012200-
   NORTHWEST IOWA

CITY           SKY/WX    TMP DP  RH WIND       PRES   REMARKS
CARROLL *      SUNNY     81  59  47 CALM      30.09F HX  81
CHEROKEE *     PTSUNNY   81  55  41 SW3       30.10S HX  80
DENISON *      MOSUNNY   79  61  53 CALM      30.08F HX  80
LE MARS *      MOSUNNY   81  55  41 S5        30.10S HX  80
ORANGE CITY *  SUNNY     82  52  34 CALM      30.11S HX  81
SHELDON *      SUNNY     79  57  47 CALM      30.10S HX  80
SIOUX CITY     SUNNY     84  59  42 CALM      30.09S HX  84
SPENCER        PTSUNNY   82  57  42 N5        30.10F HX  82
STORM LAKE *   MOSUNNY   77  61  57 CALM      30.11F
$$

IAZ055>058-069>071-079>083-090>094-012200-
   SOUTHWEST IOWA

CITY           SKY/WX    TMP DP  RH WIND       PRES   REMARKS
ATLANTIC *     SUNNY     81  61  50 CALM      30.08F HX  81
AUDUBON *      SUNNY     84  66  54 N5        30.11S HX  86
CLARINDA *     MOSUNNY   81  63  54 VRB5      30.09F HX  82
COUNCIL BLFS * SUNNY     82  63  51 E7        30.08F HX  83
CRESTON *      PTSUNNY   81  63  54 E6G20     30.09S HX  82
HARLAN  *      PTSUNNY   79  64  61 NE6       30.13S HX  81
LAMONI         MOSUNNY   81  60  48 S8        30.08F HX  82
RED OAK *      MOSUNNY   81  63  54 NE6       30.08F HX  82
SHENANDOAH *   MOSUNNY   82  63  51 SE6       30.09S HX  83
$$

IAZ047>049-059>061-072>074-084-012200-
   CENTRAL IOWA

CITY           SKY/WX    TMP DP  RH WIND       PRES   REMARKS
AMES           MOSUNNY   82  58  43 VRB7      30.08F HX  82
ANKENY *       SUNNY     82  59  44 NE8       30.08S HX  82
CHARITON *     SUNNY     81  61  50 NE6       30.07F HX  81
DES MOINES     MOSUNNY   84  61  45 SE7       30.07F HX  84
GRINNELL*      PTSUNNY   79  59  50 CALM      30.09S HX  80
KNOXVILLE *    MOSUNNY   81  59  47 NE8       30.07S HX  81
MARSHALLTOWN   MOSUNNY   82  60  47 NE5       30.08F HX  82
PELLA *        SUNNY     84  61  45 N3        30.09S HX  84
PERRY *          N/A     81  63  54 CALM      30.09S HX  82
$$

IAZ004>006-015-016-023>025-035-036-012200-
   NORTH CENTRAL IOWA

CITY           SKY/WX    TMP DP  RH WIND       PRES   REMARKS
ALGONA *       MOSUNNY   81  59  47 NW6       30.09F HX  81
CLARION *      SUNNY     81  57  44 CALM      30.09F HX  81
ESTHERVILLE    MOSUNNY   80  56  43 CALM      30.10S HX  80
FORT DODGE *   SUNNY     81  57  44 E5        30.10S HX  81
MASON CITY     SUNNY     80  59  48 CALM      30.10S HX  81
FOREST CITY *  CLOUDY    81  61  50 CALM      30.09F HX  81
IOWA FALLS *     N/A     81  57  44 SW3       30.09F HX  81
$$

IAZ007>011-017>019-026>030-037>042-050>054-066-012200-
   NORTHEAST IOWA

CITY           SKY/WX    TMP DP  RH WIND       PRES   REMARKS
CEDAR RAPIDS   MOSUNNY   79  65  62 S6        30.06F HX  81
CHARLES CITY * MOSUNNY   81  59  47 VRB3      30.09S HX  81
CLINTON *      MOSUNNY   81  61  50 N7        30.08F HX  81
DECORAH *      SUNNY     81  59  47 W5        30.07S HX  81
DUBUQUE        PTSUNNY   79  58  48 SW5       30.07F HX  80
MONTICELLO *   MOSUNNY   81  59  47 N5        30.06F HX  81
OELWEIN *      MOSUNNY   81  59  47 VRB3      30.08F HX  81
WATERLOO       MOSUNNY   82  56  40 W5        30.06F HX  82
$$

IAZ064-065-067-068-078-012200-
   EAST CENTRAL IOWA

CITY           SKY/WX    TMP DP  RH WIND       PRES   REMARKS
DAVENPORT      MOSUNNY   82  61  48 W5        30.07S HX  83
IOWA CITY      SUNNY     81  60  48 NW6       30.07F HX  82
MT. PLEASANT * CLOUDY    84  57  39 CALM      30.06F HX  83
MUSCATINE *    SUNNY     84  57  39 VRB7      30.05F HX  83
QUAD CITIES    PTSUNNY   81  61  50 SE3       30.05F HX  82
$$

IAZ062-063-075>077-085>089-095>099-012200-
   SOUTHEAST IOWA

CITY           SKY/WX    TMP DP  RH WIND       PRES   REMARKS
BURLINGTON     PTSUNNY   82  62  50 S5        30.05F HX  83
FAIRFIELD *    SUNNY     81  59  47 CALM      30.06F HX  81
FORT MADISON * CLOUDY    84  63  48 CALM      30.07S HX  85
KEOKUK *       MOSUNNY   77  64  65 E3        30.05F
OSKALOOSA *      N/A     81  63  54 CALM      30.07F HX  82
CENTERVILLE *  MOSUNNY   73  63  68 E3        30.09F
OTTUMWA        SUNNY     82  60  47 NW5       30.05F HX  82
WASHINGTON *   SUNNY     81  63  54 VRB5      30.06F HX  82
$$

ABBREVIATIONS USED IN REMARKS
   TC - TEMPERATURES IN CELSIUS
  WCI - WIND CHILL INDEX
   HX - HEAT INDEX
  VSB - VISIBILITY
$$



USA.gov is the U.S. government's official web portal to all federal, state and local government web resources and services.